User: anonymous   Login
Location: Unspecified
(0.0000°N, 0.0000°E)
Time: 20:40:51
(UTC+00:00)
Language:

FALCON 9 R/B - Orbit

View from above orbital plane
View from above orbital plane
View from above satellite
View from above satellite

Ground track
Ground track

The orbit data is extracted from the following two-line orbital elements,

1 41590U 16038C   20190.18119446 -.00000428  00000-0  30218-3 0  9995
2 41590  25.2267  38.4416 8186897 274.7274   6.9522  1.18358000 17504
Epoch (UTC): 08 July 2020 04:20:55
Eccentricity: 0.8186897
inclination: 25.2267°
perigee height: 466 km
apogee height: 62280 km
right ascension of ascending node: 38.4416°
argument of perigee: 274.7274°
revolutions per day: 1.18358000
mean anomaly at epoch: 6.9522°
orbit number at epoch: 1750

The dashed part of the orbit path shows where the satellite is in the earth's shadow,  

DLR